Simultaneous Nadir Overpasses (SNOs) Predictions

Prediction of SNOs between GOES-16 and METOP-B Satellite Orbit:

Table of predicted SNOs for the next 14.0 days since TLE Epoch: 1/7/2023
Index Date Time (GOES-16) GOES-16 Lat,Lon METOP-B Lat,Lon Distance(km) Time Diff (sec)
1 01/08/2023 02:12:49 0.03, -75.18 0.95, -71.10 465.36 80
2 01/09/2023 14:34:20 -0.02, -75.21 0.08, -75.66 50.77 80
3 01/12/2023 02:32:41 0.01, -75.22 0.02, -75.26 4.97 80
4 01/14/2023 14:28:13 -0.01, -75.27 -0.12, -74.82 50.71 80
5 01/16/2023 02:49:53 0.00, -75.27 -0.90, -79.42 472.60 80
6 01/17/2023 02:26:33 0.01, -75.28 0.23, -74.43 97.94 80
7 01/18/2023 14:48:05 -0.01, -75.32 0.78, -78.99 417.39 80
8 01/19/2023 14:27:25 -0.02, -75.33 -0.35, -73.99 153.28 80
